Date,Pressure,Depth,Temperature,Conductivity,Salinity,Fluorescence,timeJ,Latitude,Longitude,Irradiance,Transmission,Density,Oxygen_ml/l,Oxygen_umol/kg
2015-02-17T08:04:00,2.000,-2.0,13.7092,4.490432,38.0723,0.1476,48,43.24,5.29,7.7984e+01,98.5345,28.6266,5.01686,217.748
2015-02-17T08:04:00,3.000,-3.0,13.7198,4.491658,38.0728,0.1468,48,43.24,5.29,6.3893e+01,98.5814,28.6248,5.02169,217.957
2015-02-17T08:04:00,4.000,-4.0,13.7259,4.492600,38.0752,0.1531,48,43.24,5.29,5.6670e+01,98.5705,28.6255,5.02482,218.093
2015-02-17T08:04:00,5.000,-5.0,13.7306,4.493312,38.0767,0.1838,48,43.24,5.29,5.0179e+01,98.3667,28.6257,5.03437,218.507
2015-02-17T08:04:00,6.000,-6.0,13.7335,4.493770,38.0778,0.1968,48,43.24,5.29,4.4259e+01,98.5076,28.6259,5.07185,220.133
2015-02-17T08:04:00,7.000,-6.9,13.7261,4.492994,38.0776,0.2015,48,43.24,5.29,4.0171e+01,98.5093,28.6272,5.07319,220.192
2015-02-17T08:04:00,8.000,-7.9,13.7273,4.493107,38.0770,0.2146,48,43.24,5.29,3.7822e+01,98.5541,28.6266,5.08687,220.786
2015-02-17T08:04:00,9.000,-8.9,13.7283,4.493300,38.0774,0.1873,48,43.24,5.29,3.4856e+01,98.5191,28.6266,5.08345,220.637
2015-02-17T08:04:00,10.000,-9.9,13.7278,4.493305,38.0776,0.1749,48,43.24,5.29,3.2817e+01,98.5313,28.6269,5.08869,220.865
2015-02-17T08:04:00,11.000,-10.9,13.7289,4.493466,38.0776,0.1515,48,43.24,5.29,3.0888e+01,98.5390,28.6267,5.11568,222.036
2015-02-17T08:04:00,12.000,-11.9,13.7302,4.493680,38.0779,0.1403,48,43.24,5.29,2.9370e+01,98.4737,28.6267,5.09216,221.015
2015-02-17T08:04:00,13.000,-12.9,13.7304,4.493769,38.0781,0.1436,48,43.24,5.29,2.7710e+01,98.5210,28.6268,5.09623,221.192
2015-02-17T08:04:00,14.000,-13.9,13.7305,4.493816,38.0780,0.1511,48,43.24,5.29,2.5894e+01,98.5578,28.6267,5.08241,220.592
2015-02-17T08:04:00,15.000,-14.9,13.7302,4.493824,38.0780,0.1532,48,43.24,5.29,2.4501e+01,98.5263,28.6268,5.08612,220.753
2015-02-17T08:04:00,16.000,-15.9,13.7277,4.493578,38.0777,0.1507,48,43.24,5.29,2.3063e+01,98.5776,28.6270,5.09304,221.053
2015-02-17T08:04:00,17.000,-16.9,13.7281,4.493662,38.0777,0.1556,48,43.24,5.29,2.1623e+01,98.5867,28.6270,5.08854,220.858
2015-02-17T08:04:00,18.000,-17.9,13.7283,4.493741,38.0777,0.1618,48,43.24,5.29,2.0422e+01,98.4951,28.6271,5.11531,222.020
2015-02-17T08:04:00,19.000,-18.8,13.7281,4.493782,38.0779,0.1697,48,43.24,5.29,1.9274e+01,98.4797,28.6272,5.10048,221.376
2015-02-17T08:04:00,20.000,-19.8,13.7263,4.493570,38.0773,0.1702,48,43.24,5.29,1.8133e+01,98.5074,28.6272,5.11803,222.138
2015-02-17T08:04:00,21.000,-20.8,13.7259,4.493577,38.0773,0.1715,48,43.24,5.29,1.6929e+01,98.5111,28.6273,5.09582,221.174
2015-02-17T08:04:00,22.000,-21.8,13.7272,4.493773,38.0773,0.1816,48,43.24,5.29,1.5972e+01,98.5039,28.6271,5.09177,220.998
2015-02-17T08:04:00,23.000,-22.8,13.7286,4.494002,38.0777,0.1618,48,43.24,5.29,1.5054e+01,98.4773,28.6271,5.10872,221.734
2015-02-17T08:04:00,24.000,-23.8,13.7281,4.493993,38.0776,0.1432,48,43.24,5.29,1.4140e+01,98.5080,28.6272,5.10047,221.376
2015-02-17T08:04:00,25.000,-24.8,13.7283,4.494057,38.0776,0.1471,48,43.24,5.29,1.3264e+01,98.4653,28.6272,5.11227,221.888
2015-02-17T08:04:00,26.000,-25.8,13.7283,4.494094,38.0775,0.1537,48,43.24,5.29,1.2524e+01,98.5262,28.6271,5.12080,222.258
2015-02-17T08:04:00,27.000,-26.8,13.7259,4.493887,38.0775,0.1562,48,43.24,5.29,1.1747e+01,98.5769,28.6276,5.12496,222.439
2015-02-17T08:04:00,28.000,-27.8,13.7230,4.493594,38.0772,0.1583,48,43.24,5.29,1.1000e+01,98.5642,28.6280,5.09576,221.172
2015-02-17T08:04:00,29.000,-28.8,13.7216,4.493406,38.0764,0.1797,48,43.24,5.29,1.0329e+01,98.5779,28.6277,5.09281,221.043
2015-02-17T08:04:00,30.000,-29.8,13.7195,4.493258,38.0767,0.1626,48,43.24,5.29,9.7265e+00,98.4804,28.6283,5.10164,221.427
2015-02-17T08:04:00,31.000,-30.8,13.7074,4.491950,38.0762,0.1691,48,43.24,5.29,9.1349e+00,98.4981,28.6304,5.11618,222.058
2015-02-17T08:04:00,32.000,-31.7,13.6972,4.490648,38.0736,0.1689,48,43.24,5.29,8.5735e+00,98.6091,28.6304,5.11758,222.120
2015-02-17T08:04:00,33.000,-32.7,13.6921,4.490092,38.0729,0.1613,48,43.24,5.29,8.0271e+00,98.5611,28.6310,5.10490,221.569
2015-02-17T08:04:00,34.000,-33.7,13.6939,4.490304,38.0725,0.1489,48,43.24,5.29,7.5545e+00,98.6314,28.6305,5.10331,221.500
2015-02-17T08:04:00,35.000,-34.7,13.6887,4.489756,38.0722,0.1474,48,43.24,5.29,7.0848e+00,98.6257,28.6313,5.10364,221.515
2015-02-17T08:04:00,36.000,-35.7,13.6956,4.490596,38.0726,0.1421,48,43.24,5.29,6.6705e+00,98.5765,28.6304,5.09274,221.041
2015-02-17T08:04:00,37.000,-36.7,13.6840,4.489453,38.0731,0.1415,48,43.24,5.29,6.2884e+00,98.5460,28.6331,5.11008,221.794
2015-02-17T08:04:00,38.000,-37.7,13.6796,4.489249,38.0751,0.1421,48,43.24,5.29,5.8837e+00,98.5777,28.6356,5.12838,222.588
2015-02-17T08:04:00,39.000,-38.7,13.6809,4.489477,38.0753,0.1255,48,43.24,5.29,5.5416e+00,98.6800,28.6357,5.12272,222.342
2015-02-17T08:04:00,40.000,-39.7,13.6807,4.489564,38.0759,0.1269,48,43.24,5.29,5.2370e+00,98.7066,28.6362,5.09931,221.326
2015-02-17T08:04:00,41.000,-40.7,13.6801,4.489678,38.0770,0.1462,48,43.24,5.29,4.9215e+00,98.8142,28.6373,5.10736,221.675
2015-02-17T08:04:00,42.000,-41.6,13.6794,4.489650,38.0770,0.2329,48,43.24,5.29,4.6528e+00,98.9306,28.6374,5.11609,222.054
2015-02-17T08:04:00,43.000,-42.7,13.6732,4.489035,38.0769,0.1423,48,43.24,5.29,4.4120e+00,98.9730,28.6387,5.10480,221.565
2015-02-17T08:04:00,44.000,-43.6,13.6703,4.488663,38.0759,0.1161,48,43.24,5.29,4.1554e+00,98.7830,28.6385,5.11556,222.032
2015-02-17T08:04:00,45.000,-44.6,13.6690,4.488596,38.0760,0.1032,48,43.24,5.29,3.9160e+00,98.8117,28.6389,5.12223,222.321
2015-02-17T08:04:00,46.000,-45.6,13.6677,4.488503,38.0760,0.0978,48,43.24,5.29,3.6833e+00,98.9010,28.6393,5.10746,221.680
2015-02-17T08:04:00,47.000,-46.6,13.6670,4.488448,38.0757,0.1079,48,43.24,5.29,3.4670e+00,98.8046,28.6393,5.10869,221.734
2015-02-17T08:04:00,48.000,-47.6,13.6637,4.488112,38.0754,0.1159,48,43.24,5.29,3.2607e+00,98.6812,28.6397,5.12165,222.296
2015-02-17T08:04:00,49.000,-48.6,13.6616,4.487886,38.0748,0.1271,48,43.24,5.29,3.0748e+00,98.6361,28.6397,5.12269,222.342
2015-02-17T08:04:00,50.000,-49.6,13.6601,4.487731,38.0744,0.1303,48,43.24,5.29,2.8960e+00,98.5804,28.6397,5.11269,221.908
2015-02-17T08:04:00,51.000,-50.6,13.6587,4.487648,38.0745,0.1447,48,43.24,5.29,2.7291e+00,98.5350,28.6402,5.10857,221.729
2015-02-17T08:04:00,52.000,-51.6,13.6536,4.487002,38.0731,0.2005,48,43.24,5.29,2.5400e+00,98.3989,28.6401,5.13777,222.996
2015-02-17T08:04:00,53.000,-52.6,13.6537,4.487017,38.0726,0.1537,48,43.24,5.29,2.3651e+00,98.2711,28.6399,5.13353,222.812
2015-02-17T08:04:00,54.000,-53.6,13.6527,4.486942,38.0724,0.1354,48,43.24,5.29,2.1994e+00,98.1432,28.6400,5.13410,222.837
2015-02-17T08:04:00,55.000,-54.6,13.6520,4.486908,38.0722,0.1206,48,43.24,5.29,2.0580e+00,97.9342,28.6401,5.13245,222.765
2015-02-17T08:04:00,56.000,-55.5,13.6519,4.486949,38.0723,0.1243,48,43.24,5.29,1.9312e+00,97.8186,28.6402,5.11920,222.191
2015-02-17T08:04:00,57.000,-56.5,13.6527,4.487079,38.0722,0.1916,48,43.24,5.29,1.8009e+00,97.4652,28.6400,5.13563,222.904
2015-02-17T08:04:00,58.000,-57.5,13.6553,4.487499,38.0730,0.1566,48,43.24,5.29,1.6694e+00,96.9621,28.6402,5.12169,222.298
